Left ArrowRight Arrow

38.20091, -84.87328

Hourly Observations for June 25, 2024

Temp ( °F °C ) Dew Point ( °F °C ) Humidity (%) Winds ( mph kmh ) Pressure ( in mb ) Visibility ( mi km ) Precip ( " mm )
12:53 am 00:53 Clear 66 18.9 60 15.6 81 81 Calm 29.96 1014 10 16 0.00 0.00
1:53 am 01:53 Clear 65 18.3 60 15.6 84 84 Calm 29.96 1015 10 16 0.00 0.00
2:53 am 02:53 Clear 64 17.8 60 15.6 87 87 Calm 29.96 1015 10 16 0.00 0.00
3:53 am 03:53 Clear 65 18.3 60 15.6 84 84 Calm 29.94 1014 10 16 0.00 0.00
4:53 am 04:53 Clear 63 17.2 60 15.6 90 90 Calm 29.95 1014 10 16 0.00 0.00
5:53 am 05:53 Clear 63 17.2 60 15.6 90 90 Calm 29.95 1014 10 16 0.00 0.00
6:53 am 06:53 Sunny 67 19.4 60 15.6 79 79 SSW 5 7 29.95 1014 10 16 0.00 0.00
7:53 am 07:53 undefined N/A N/A N/A undefined N/A 30.04 1017 N/A 0.00 0.00
8:53 am 08:53 undefined N/A N/A N/A undefined N/A 30.03 1017 N/A 0.00 0.00
9:53 am 09:53 undefined N/A N/A N/A undefined N/A 29.99 1016 N/A 0.00 0.00
10:53 am 10:53 undefined N/A N/A N/A undefined N/A 29.99 1016 N/A 0.00 0.00
11:53 am 11:53 undefined N/A N/A N/A undefined N/A 30.00 1016 N/A 0.00 0.00
12:53 pm 12:53 Sunny 88 31.1 62 16.7 42 42 SSW 12 19 29.95 1014 10 16 0.00 0.00
1:53 pm 13:53 Sunny 90 32.2 64 17.8 42 42 SW 10 17 29.94 1014 10 16 0.00 0.00
2:53 pm 14:53 Mostly Sunny 92 33.3 66 18.9 43 43 VRB 7 11 29.92 1013 10 16 0.00 0.00
3:53 pm 15:53 Mostly Cloudy 91 32.8 67 19.4 45 45 SSW 13 20 29.91 1013 10 16 0.01 0.13
4:53 pm 16:53 Mostly Sunny 91 32.8 68 20 47 47 SW 12 19 29.90 1012 10 16 0.00 0.00
5:53 pm 17:53 Sunny 90 32.2 68 20 49 49 SW 13 20 29.89 1012 10 16 0.00 0.00
6:34 pm 18:34 Mostly Cloudy with Thunderstorms 79 26.1 66 18.9 65 65 WNW 20 31 29.94 1014 10 16 0.00 0.00
6:51 pm 18:51 Cloudy with Strong Thunderstorms 72 22 70 21 94 94 NNW 12 19 29.97 1015 1 1 0.25 6.35
6:55 pm 18:55 Cloudy with Strong Thunderstorms 73 22.8 68 20 84 84 WNW 9 15 29.96 1015 1 2 0.01 0.13
7:06 pm 19:06 Cloudy with Nearby Thunderstorms 72 22.2 68 20 87 87 W 7 11 29.97 1015 10 16 0.01 0.13
7:19 pm 19:19 Cloudy with Thunderstorms 72 22.2 68 20 87 87 VRB 6 9 29.96 1014 4 6 0.02 0.51
7:40 pm 19:40 Mostly Cloudy with Nearby Thunderstorms 71 21.7 68 20 90 90 WNW 8 13 29.95 1014 10 16 0.04 1.02
7:53 pm 19:53 Partly Cloudy with Light Rain 72 22.2 68 20 87 87 WNW 8 13 29.94 1014 9 14 0.05 1.27
8:53 pm 20:53 undefined N/A N/A N/A undefined N/A 29.93 1014 N/A 0.06 1.52
9:53 pm 21:53 undefined N/A N/A N/A undefined N/A 29.90 1013 N/A 0.00 0.00
10:53 pm 22:53 undefined N/A N/A N/A undefined N/A 29.94 1014 N/A 0.00 0.00
11:53 pm 23:53 undefined N/A N/A N/A undefined N/A 29.98 1015 N/A 0.00 0.00

Powered by Vaisala Xweather